Погода в Эт-Туре

Египет     28°14′21″N   33°37′32″E
темп.,
°C
ветер,
м/с
пор.,
м/с
влажн.,
%
обл.,
%
осадки,
мм/ч
давл.,
гПа
погр.,
м
1 марта, пн
пн123:00+14сз22460 0.0 101940
02:00+13сз22500 0.0 101740
05:00+12сз33610 0.0 101952
08:00+15сз34420 0.0 1019208
11:00+21зсз65280 0.0 10191241
14:00+22зсз87330 0.0 10161235
17:00+20сз810260 0.0 1017669
20:00+15ссз33360 0.0 101851
2 марта, вт
вт223:00+14сз23410 0.0 101936
02:00+12ссз12450 0.0 101832
05:00+11сз23510 0.0 101939
08:00+15сз12380 0.0 1020119
11:00+22зсз54240 0.0 1019910
14:00+23зсз98230 0.0 10171019
17:00+21сз811190 0.0 1017552
20:00+15сз23320 0.0 101957
3 марта, ср
ср323:00+14сз34340 0.0 101949
02:00+12сз34440 0.0 101856
05:00+11сз45500 0.0 101870
08:00+14сз57490 0.0 1018323
11:00+20зсз77310 0.0 1017787
14:00+21сз109240 0.0 1014932
17:00+19сз1012210 0.0 1015827
20:00+16сз912310 0.0 1017255
4 марта, чт
чт423:00+14сз811410 0.0 1017199
02:00+12сз79540 0.0 1017175
05:00+10сз710570 0.0 1018183
08:00+13сз810440 0.0 10191204
11:00+16сз1010340 0.0 10191285
14:00+18сз1212290 0.0 10181438
17:00+17сз1112290 0.0 1019831
20:00+14ссз46350 0.0 102064
5 марта, пт
пт523:00+11с22370 0.0 102231
02:00+10в11380 0.0 102228
05:00+9в11540 0.0 102230
08:00+15ссз22340 0.0 1024149
11:00+20з32250 0.0 1023929
14:00+22з65300 0.0 1020915
17:00+20зсз56410 0.0 1020481
20:00+13юз01630 0.0 102130